| time (UTC) | temp F | wind direction | speed MPH | gust MPH | rain 1hr in | rain 24hr in | rain mn in | humidity % | barometer mb |
| 20260903212857 | 91 | 0.0 | 0.0 | 0.00 | 0.00 | 0.00 | 73 | 1014.1 | |
| 20260903212344 | 91 | 0.0 | 0.0 | 0.00 | 0.00 | 0.00 | 72 | 1013.9 | |
| 20260903211849 | 91 | 0.0 | 0.0 | 0.00 | 0.00 | 0.00 | 69 | 1013.9 | |
| 20260903211418 | 91 | 0.0 | 0.0 | 0.00 | 0.00 | 0.00 | 73 | 1013.9 | |
| 20260903210843 | 91 | 0.0 | 0.0 | 0.00 | 0.00 | 0.00 | 69 | 1014.0 | |
| 20260903210349 | 92 | 0.0 | 0.0 | 0.00 | 0.00 | 0.00 | 69 | 1014.0 | |
| 20260903205852 | 92 | 0.0 | 0.0 | 0.00 | 0.00 | 0.00 | 66 | 1014.0 | |
| 20260903205357 | 92 | 0.0 | 0.0 | 0.00 | 0.00 | 0.00 | 71 | 1014.0 | |
| 20260903204901 | 92 | 0.0 | 0.0 | 0.00 | 0.00 | 0.00 | 70 | 1014.0 | |
| 20260903204348 | 92 | 0.0 | 0.0 | 0.00 | 0.00 | 0.00 | 67 | 1013.9 | |
| 20260903203857 | 92 | 0.0 | 0.0 | 0.00 | 0.00 | 0.00 | 73 | 1014.0 | |
| 20260903203404 | 92 | 0.0 | 0.0 | 0.00 | 0.00 | 0.00 | 71 | 1014.0 | |
| 20260903202848 | 92 | 0.0 | 0.0 | 0.00 | 0.00 | 0.00 | 72 | 1014.0 | |
| 20260903202355 | 92 | 0.0 | 0.0 | 0.00 | 0.00 | 0.00 | 71 | 1014.0 | |
| 20260903201922 | 91 | 0.0 | 0.0 | 0.00 | 0.00 | 0.00 | 73 | 1014.1 | |
| 20260903201346 | 91 | 0.0 | 0.0 | 0.00 | 0.00 | 0.00 | 75 | 1014.3 | |
| 20260903200854 | 91 | 0.0 | 0.0 | 0.00 | 0.00 | 0.00 | 71 | 1014.4 | |
| 20260903200422 | 91 | 0.0 | 0.0 | 0.00 | 0.00 | 0.00 | 70 | 1014.4 | |
| 20260903195846 | 92 | 0.0 | 0.0 | 0.00 | 0.00 | 0.00 | 71 | 1014.4 | |
| 20260903195353 | 92 | 0.0 | 0.0 | 0.00 | 0.00 | 0.00 | 67 | 1014.4 | |
| 20260903194857 | 92 | 0.0 | 0.0 | 0.00 | 0.00 | 0.00 | 72 | 1014.6 | |
| 20260903194340 | 92 | 0.0 | 0.0 | 0.00 | 0.00 | 0.00 | 71 | 1014.6 | |
| 20260903193848 | 92 | 0.0 | 0.0 | 0.00 | 0.00 | 0.00 | 72 | 1014.6 | |
| 20260903193357 | 92 | 0.0 | 0.0 | 0.00 | 0.00 | 0.00 | 73 | 1014.7 | |
| 20260903192921 | 92 | 0.0 | 0.0 | 0.00 | 0.00 | 0.00 | 73 | 1014.9 | |
| 20260903192347 | 91 | 0.0 | 0.0 | 0.00 | 0.00 | 0.00 | 72 | 1015.0 | |
| 20260903191837 | 91 | 0.0 | 0.0 | 0.00 | 0.00 | 0.00 | 76 | 1014.9 | |
| 20260903191350 | 90 | 0.0 | 0.0 | 0.00 | 0.00 | 0.00 | 77 | 1014.9 | |
| 20260903190839 | 90 | 0.0 | 0.0 | 0.00 | 0.00 | 0.00 | 78 | 1015.0 | |
| 20260903190351 | 89 | 0.0 | 0.0 | 0.00 | 0.00 | 0.00 | 80 | 1015.0 | |
| 20260903185857 | 89 | 0.0 | 0.0 | 0.00 | 0.00 | 0.00 | 79 | 1015.1 | |
| 20260903185347 | 88 | 0.0 | 0.0 | 0.00 | 0.00 | 0.00 | 82 | 1015.2 | |
| 20260903184856 | 88 | 0.0 | 0.0 | 0.00 | 0.00 | 0.00 | 81 | 1015.2 | |
| 20260903184405 | 87 | 0.0 | 0.0 | 0.00 | 0.00 | 0.00 | 84 | 1015.4 | |
| 20260903183855 | 87 | 0.0 | 0.0 | 0.00 | 0.00 | 0.00 | 83 | 1015.5 | |
| 20260903183345 | 86 | 0.0 | 0.0 | 0.00 | 0.00 | 0.00 | 85 | 1015.5 | |
| 20260903182850 | 86 | 0.0 | 0.0 | 0.00 | 0.00 | 0.00 | 87 | 1015.5 | |
| 20260903182402 | 85 | 0.0 | 0.0 | 0.00 | 0.00 | 0.00 | 87 | 1015.5 | |
| 20260903181911 | 85 | 0.0 | 0.0 | 0.00 | 0.00 | 0.00 | 89 | 1015.5 | |
| 20260903181339 | 85 | 0.0 | 0.0 | 0.00 | 0.00 | 0.00 | 91 | 1015.5 | |
| 20260903180849 | 84 | 0.0 | 0.0 | 0.00 | 0.00 | 0.00 | 91 | 1015.6 | |
| 20260903180341 | 84 | 0.0 | 0.0 | 0.00 | 0.00 | 0.00 | 91 | 1015.6 | |
| 20260903175848 | 83 | 0.0 | 0.0 | 0.00 | 0.00 | 0.00 | 93 | 1015.7 | |
| 20260903175419 | 83 | 0.0 | 0.0 | 0.00 | 0.00 | 0.00 | 94 | 1015.8 | |
| 20260903174847 | 82 | 0.0 | 0.0 | 0.00 | 0.00 | 0.00 | 94 | 1015.8 | |
| 20260903174417 | 82 | 0.0 | 0.0 | 0.00 | 0.00 | 0.00 | 93 | 1015.7 | |
| 20260903173846 | 81 | 0.0 | 0.0 | 0.00 | 0.00 | 0.00 | 93 | 1015.8 | |
| 20260903173356 | 81 | 0.0 | 0.0 | 0.00 | 0.00 | 0.00 | 93 | 1015.9 | |
| 20260903172842 | 80 | 0.0 | 0.0 | 0.00 | 0.00 | 0.00 | 93 | 1016.1 | |
| 20260903172353 | 80 | 0.0 | 0.0 | 0.00 | 0.00 | 0.00 | 92 | 1016.1 | |
| 20260903171843 | 79 | 0.0 | 0.0 | 0.00 | 0.00 | 0.00 | 92 | 1016.3 | |
| 20260903171414 | 79 | 0.0 | 0.0 | 0.00 | 0.00 | 0.00 | 92 | 1016.2 | |
| 20260903170843 | 78 | 0.0 | 0.0 | 0.00 | 0.00 | 0.00 | 94 | 1016.2 | |
| 20260903170415 | 78 | 0.0 | 0.0 | 0.00 | 0.00 | 0.00 | 92 | 1016.4 | |
| 20260903165838 | 77 | 0.0 | 0.0 | 0.00 | 0.00 | 0.00 | 90 | 1016.4 | |
| 20260903165349 | 77 | 0.0 | 0.0 | 0.00 | 0.00 | 0.00 | 90 | 1016.4 | |
| 20260903164858 | 77 | 0.0 | 0.0 | 0.00 | 0.00 | 0.00 | 90 | 1016.6 | |
| 20260903164348 | 76 | 0.0 | 0.0 | 0.00 | 0.00 | 0.00 | 90 | 1016.8 | |
| 20260903163838 | 76 | 0.0 | 0.0 | 0.00 | 0.00 | 0.00 | 91 | 1016.8 | |
| 20260903163349 | 76 | 0.0 | 0.0 | 0.00 | 0.00 | 0.00 | 90 | 1016.8 | |
| 20260903162915 | 75 | 0.0 | 0.0 | 0.00 | 0.00 | 0.00 | 90 | 1016.9 | |
| 20260903162402 | 75 | 0.0 | 0.0 | 0.00 | 0.00 | 0.00 | 90 | 1017.0 | |
| 20260903161855 | 75 | 0.0 | 0.0 | 0.00 | 0.00 | 0.00 | 90 | 1017.4 | |
| 20260903161402 | 75 | 0.0 | 0.0 | 0.00 | 0.00 | 0.00 | 90 | 1017.4 | |
| 20260903160851 | 75 | 0.0 | 0.0 | 0.00 | 0.00 | 0.00 | 89 | 1017.4 | |
| 20260903160342 | 75 | 0.0 | 0.0 | 0.00 | 0.00 | 0.00 | 90 | 1017.2 | |
| 20260903155912 | 74 | 0.0 | 0.0 | 0.00 | 0.00 | 0.00 | 89 | 1017.3 | |
| 20260903155401 | 74 | 0.0 | 0.0 | 0.00 | 0.00 | 0.00 | 90 | 1017.1 | |
| 20260903154849 | 74 | 0.0 | 0.0 | 0.00 | 0.00 | 0.00 | 89 | 1017.4 | |
| 20260903154338 | 74 | 0.0 | 0.0 | 0.00 | 0.00 | 0.00 | 89 | 1017.5 | |
| 20260903153848 | 74 | 0.0 | 0.0 | 0.00 | 0.00 | 0.00 | 89 | 1017.5 | |
| 20260903153342 | 74 | 0.0 | 0.0 | 0.00 | 0.00 | 0.00 | 89 | 1017.6 | |
| 20260903152848 | 74 | 0.0 | 0.0 | 0.00 | 0.00 | 0.00 | 89 | 1017.7 | |
| 20260903152351 | 74 | 0.0 | 0.0 | 0.00 | 0.00 | 0.00 | 89 | 1017.9 | |
| 20260903151857 | 74 | 0.0 | 0.0 | 0.00 | 0.00 | 0.00 | 89 | 1018.0 | |
| 20260903151342 | 73 | 0.0 | 0.0 | 0.00 | 0.00 | 0.00 | 89 | 1018.1 | |
| 20260903150850 | 73 | 0.0 | 0.0 | 0.00 | 0.00 | 0.00 | 89 | 1018.3 | |
| 20260903150356 | 73 | 0.0 | 0.0 | 0.00 | 0.00 | 0.00 | 88 | 1018.5 | |
| 20260903145840 | 73 | 0.0 | 0.0 | 0.00 | 0.00 | 0.00 | 88 | 1018.6 | |
| 20260903145349 | 73 | 0.0 | 0.0 | 0.00 | 0.00 | 0.00 | 88 | 1018.4 | |
| 20260903144858 | 73 | 0.0 | 0.0 | 0.00 | 0.00 | 0.00 | 88 | 1018.3 | |
| 20260903144343 | 73 | 0.0 | 0.0 | 0.00 | 0.00 | 0.00 | 88 | 1018.0 | |
| 20260903143849 | 73 | 0.0 | 0.0 | 0.00 | 0.00 | 0.00 | 88 | 1018.3 | |
| 20260903143419 | 73 | 0.0 | 0.0 | 0.00 | 0.00 | 0.00 | 88 | 1018.1 | |
| 20260903142923 | 72 | 0.0 | 0.0 | 0.00 | 0.00 | 0.00 | 88 | 1018.4 | |
| 20260903142348 | 72 | 0.0 | 0.0 | 0.00 | 0.00 | 0.00 | 88 | 1018.2 | |
| 20260903141856 | 72 | 0.0 | 0.0 | 0.00 | 0.00 | 0.00 | 88 | 1018.7 | |
| 20260903141345 | 72 | 0.0 | 0.0 | 0.00 | 0.00 | 0.00 | 88 | 1018.8 | |
| 20260903140914 | 72 | 0.0 | 0.0 | 0.00 | 0.00 | 0.00 | 88 | 1018.4 | |
| 20260903140347 | 72 | 0.0 | 0.0 | 0.00 | 0.00 | 0.00 | 88 | 1017.6 | |
| 20260903135852 | 71 | 0.0 | 0.0 | 0.00 | 0.00 | 0.00 | 88 | 1017.4 | |
| 20260903135355 | 71 | 0.0 | 0.0 | 0.00 | 0.00 | 0.00 | 89 | 1017.3 | |
| 20260903134848 | 71 | 0.0 | 0.0 | 0.00 | 0.00 | 0.00 | 89 | 1017.0 | |
| 20260903134339 | 71 | 0.0 | 0.0 | 0.00 | 0.00 | 0.00 | 89 | 1017.1 | |
| 20260903133849 | 71 | 0.0 | 0.0 | 0.00 | 0.00 | 0.00 | 89 | 1017.1 | |
| 20260903133400 | 71 | 0.0 | 0.0 | 0.00 | 0.00 | 0.00 | 89 | 1017.3 | |
| 20260903132845 | 71 | 0.0 | 0.0 | 0.00 | 0.00 | 0.00 | 89 | 1017.3 | |
| 20260903132416 | 71 | 0.0 | 0.0 | 0.00 | 0.00 | 0.00 | 89 | 1017.3 | |
| 20260903131845 | 71 | 0.0 | 0.0 | 0.00 | 0.00 | 0.00 | 89 | 1017.4 | |
| 20260903131355 | 71 | 0.0 | 0.0 | 0.00 | 0.00 | 0.00 | 89 | 1017.5 | |
| 20260903130903 | 71 | 0.0 | 0.0 | 0.00 | 0.00 | 0.00 | 88 | 1017.5 | |
| 20260903130354 | 0 | 0.0 | 0.0 | 0.00 | 0.00 | 0.00 | 1017.6 | ||
| 20260903125859 | 0 | 0.0 | 0.0 | 0.00 | 0.00 | 0.00 | 1017.7 | ||
| 20260903125349 | 0 | 0.0 | 0.0 | 0.00 | 0.00 | 0.00 | 1017.8 | ||
| 20260903124839 | 70 | 0.0 | 0.0 | 0.00 | 0.00 | 0.00 | 89 | 1017.7 | |
| 20260903123836 | 70 | 0.0 | 0.0 | 0.00 | 0.00 | 0.00 | 89 | 1017.4 | |
| 20260903123348 | 70 | 0.0 | 0.0 | 0.00 | 0.00 | 0.00 | 89 | 1017.2 | |
| 20260903122916 | 70 | 0.0 | 0.0 | 0.00 | 0.00 | 0.00 | 89 | 1017.3 | |
| 20260903122345 | 70 | 0.0 | 0.0 | 0.00 | 0.00 | 0.00 | 89 | 1017.1 | |
| 20260903121915 | 70 | 0.0 | 0.0 | 0.00 | 0.00 | 0.00 | 89 | 1017.0 | |
| 20260903121345 | 70 | 0.0 | 0.0 | 0.00 | 0.00 | 0.00 | 89 | 1017.0 | |
| 20260903120854 | 0 | 0.0 | 0.0 | 0.00 | 0.00 | 0.00 | 1016.8 | ||
| 20260903120404 | 0 | 0.0 | 0.0 | 0.00 | 0.00 | 0.00 | 1016.9 | ||
| 20260903115847 | 0 | 0.0 | 0.0 | 0.00 | 0.00 | 0.00 | 1017.1 | ||
| 20260903115338 | 0 | 0.0 | 0.0 | 0.00 | 0.00 | 0.00 | 1017.2 | ||
| 20260903114912 | 0 | 0.0 | 0.0 | 0.00 | 0.00 | 0.00 | 1017.6 | ||
| 20260903114400 | 0 | 0.0 | 0.0 | 0.00 | 0.00 | 0.00 | 1017.5 | ||
| 20260903113850 | 0 | 0.0 | 0.0 | 0.00 | 0.00 | 0.00 | 1017.6 | ||
| 20260903113341 | 0 | 0.0 | 0.0 | 0.00 | 0.00 | 0.00 | 1018.0 | ||
| 20260903112850 | 0 | 0.0 | 0.0 | 0.00 | 0.00 | 0.00 | 1017.9 | ||
| 20260903112342 | 0 | 0.0 | 0.0 | 0.00 | 0.00 | 0.00 | 1017.7 | ||
| 20260903111915 | 0 | 0.0 | 0.0 | 0.00 | 0.00 | 0.00 | 1017.6 | ||
| 20260903111347 | 0 | 0.0 | 0.0 | 0.00 | 0.00 | 0.00 | 1017.7 | ||
| 20260903110840 | 0 | 0.0 | 0.0 | 0.00 | 0.00 | 0.00 | 1018.0 | ||
| 20260903110352 | 0 | 0.0 | 0.0 | 0.00 | 0.00 | 0.00 | 1017.7 | ||
| 20260903105840 | 0 | 0.0 | 0.0 | 0.00 | 0.00 | 0.00 | 1017.6 | ||
| 20260903105353 | 0 | 0.0 | 0.0 | 0.00 | 0.00 | 0.00 | 1017.6 | ||
| 20260903104846 | 0 | 0.0 | 0.0 | 0.00 | 0.00 | 0.00 | 1017.9 | ||
| 20260903104342 | 0 | 0.0 | 0.0 | 0.00 | 0.00 | 0.00 | 1018.3 | ||
| 20260903103851 | 0 | 0.0 | 0.0 | 0.00 | 0.00 | 0.00 | 1018.8 | ||
| 20260903103400 | 0 | 0.0 | 0.0 | 0.00 | 0.00 | 0.00 | 1019.1 | ||
| 20260903102847 | 0 | 0.0 | 0.0 | 0.00 | 0.00 | 0.00 | 1019.2 | ||
| 20260903102359 | 0 | 0.0 | 0.0 | 0.00 | 0.00 | 0.00 | 1019.5 | ||
| 20260903101905 | 0 | 0.0 | 0.0 | 0.00 | 0.00 | 0.00 | 1019.1 | ||
| 20260903101350 | 0 | 0.0 | 0.0 | 0.00 | 0.00 | 0.00 | 1019.3 | ||
| 20260903100854 | 0 | 0.0 | 0.0 | 0.00 | 0.00 | 0.00 | 1019.5 | ||
| 20260903100342 | 0 | 0.0 | 0.0 | 0.00 | 0.00 | 0.00 | 1019.4 | ||
| 20260903095849 | 0 | 0.0 | 0.0 | 0.00 | 0.00 | 0.00 | 1019.2 | ||
| 20260903095357 | 0 | 0.0 | 0.0 | 0.00 | 0.00 | 0.00 | 1018.9 | ||
| 20260903094846 | 0 | 0.0 | 0.0 | 0.00 | 0.00 | 0.00 | 1018.7 | ||
| 20260903094351 | 0 | 0.0 | 0.0 | 0.00 | 0.00 | 0.00 | 1018.4 | ||
| 20260903093843 | 0 | 0.0 | 0.0 | 0.00 | 0.00 | 0.00 | 1018.6 | ||
| 20260903093352 | 0 | 0.0 | 0.0 | 0.00 | 0.00 | 0.00 | 1018.6 | ||
| 20260903092855 | 0 | 0.0 | 0.0 | 0.00 | 0.00 | 0.00 | 1018.5 | ||
| 20260903092404 | 0 | 0.0 | 0.0 | 0.00 | 0.00 | 0.00 | 1018.5 | ||
| 20260903091913 | 0 | 0.0 | 0.0 | 0.00 | 0.00 | 0.00 | 1018.4 | ||
| 20260903091400 | 0 | 0.0 | 0.0 | 0.00 | 0.00 | 0.00 | 1018.4 | ||
| 20260903090906 | 0 | 0.0 | 0.0 | 0.00 | 0.00 | 0.00 | 1018.7 | ||
| 20260903090354 | 0 | 0.0 | 0.0 | 0.00 | 0.00 | 0.00 | 1018.8 | ||
| 20260903085858 | 0 | 0.0 | 0.0 | 0.00 | 0.00 | 0.00 | 1018.9 | ||
| 20260903085345 | 0 | 0.0 | 0.0 | 0.00 | 0.00 | 0.00 | 1019.5 | ||
| 20260903084854 | 0 | 0.0 | 0.0 | 0.00 | 0.00 | 0.00 | 1019.0 | ||
| 20260903084347 | 0 | 0.0 | 0.0 | 0.00 | 0.00 | 0.00 | 1019.0 | ||
| 20260903083918 | 0 | 0.0 | 0.0 | 0.00 | 0.00 | 0.00 | 1019.1 | ||
| 20260903083404 | 0 | 0.0 | 0.0 | 0.00 | 0.00 | 0.00 | 1019.3 | ||
| 20260903082850 | 0 | 0.0 | 0.0 | 0.00 | 0.00 | 0.00 | 1018.8 | ||
| 20260903082338 | 0 | 0.0 | 0.0 | 0.00 | 0.00 | 0.00 | 1019.0 | ||
| 20260903081847 | 0 | 0.0 | 0.0 | 0.00 | 0.00 | 0.00 | 1019.0 | ||
| 20260903081358 | 0 | 0.0 | 0.0 | 0.00 | 0.00 | 0.00 | 1019.0 | ||
| 20260903080847 | 0 | 0.0 | 0.0 | 0.00 | 0.00 | 0.00 | 1019.1 | ||
| 20260903080358 | 0 | 0.0 | 0.0 | 0.00 | 0.00 | 0.00 | 1019.1 | ||
| 20260903075905 | 0 | 0.0 | 0.0 | 0.00 | 0.00 | 0.00 | 1018.5 | ||
| 20260903075415 | 0 | 0.0 | 0.0 | 0.00 | 0.00 | 0.00 | 1018.8 | ||
| 20260903074906 | 0 | 0.0 | 0.0 | 0.00 | 0.00 | 0.00 | 1018.8 | ||
| 20260903074338 | 0 | 0.0 | 0.0 | 0.00 | 0.00 | 0.00 | 1019.0 | ||
| 20260903073851 | 0 | 0.0 | 0.0 | 0.00 | 0.00 | 0.00 | 1019.1 | ||
| 20260903073342 | 0 | 0.0 | 0.0 | 0.00 | 0.00 | 0.00 | 1019.0 | ||
| 20260903072851 | 0 | 0.0 | 0.0 | 0.00 | 0.00 | 0.00 | 1018.6 | ||
| 20260903072342 | 0 | 0.0 | 0.0 | 0.00 | 0.00 | 0.00 | 1017.6 | ||
| 20260903071836 | 0 | 0.0 | 0.0 | 0.00 | 0.00 | 0.00 | 1017.7 | ||
| 20260903071349 | 0 | 0.0 | 0.0 | 0.00 | 0.00 | 0.00 | 1017.6 | ||
| 20260903070901 | 0 | 0.0 | 0.0 | 0.00 | 0.00 | 0.00 | 1017.7 | ||
| 20260903070412 | 0 | 0.0 | 0.0 | 0.00 | 0.00 | 0.00 | 1017.8 | ||
| 20260903065859 | 0 | 0.0 | 0.0 | 0.00 | 0.00 | 0.00 | 1017.8 | ||
| 20260903065349 | 0 | 0.0 | 0.0 | 0.00 | 0.00 | 0.00 | 1017.6 | ||
| 20260903064839 | 0 | 0.0 | 0.0 | 0.00 | 0.00 | 0.00 | 1017.5 | ||
| 20260903064350 | 0 | 0.0 | 0.0 | 0.00 | 0.00 | 0.00 | 1017.5 | ||
| 20260903063842 | 0 | 0.0 | 0.0 | 0.00 | 0.00 | 0.00 | 1017.5 | ||
| 20260903063355 | 0 | 0.0 | 0.0 | 0.00 | 0.00 | 0.00 | 1017.7 | ||
| 20260903062843 | 0 | 0.0 | 0.0 | 0.00 | 0.00 | 0.00 | 1017.8 | ||
| 20260903062336 | 0 | 0.0 | 0.0 | 0.00 | 0.00 | 0.00 | 1017.8 | ||
| 20260903061848 | 0 | 0.0 | 0.0 | 0.00 | 0.00 | 0.00 | 1017.9 | ||
| 20260903061339 | 0 | 0.0 | 0.0 | 0.00 | 0.00 | 0.00 | 1017.9 | ||
| 20260903060836 | 0 | 0.0 | 0.0 | 0.00 | 0.00 | 0.00 | 1018.1 | ||
| 20260903060349 | 0 | 0.0 | 0.0 | 0.00 | 0.00 | 0.00 | 1018.3 | ||
| 20260903055851 | 0 | 0.0 | 0.0 | 0.00 | 0.00 | 0.00 | 1018.3 | ||
| 20260903055357 | 0 | 0.0 | 0.0 | 0.00 | 0.00 | 0.00 | 1018.3 | ||
| 20260903054842 | 0 | 0.0 | 0.0 | 0.00 | 0.00 | 0.00 | 1018.5 | ||
| 20260903054350 | 0 | 0.0 | 0.0 | 0.00 | 0.00 | 0.00 | 1018.6 | ||
| 20260903053856 | 0 | 0.0 | 0.0 | 0.00 | 0.00 | 0.00 | 1018.7 | ||
| 20260903053404 | 0 | 0.0 | 0.0 | 0.00 | 0.00 | 0.00 | 1018.9 | ||
| 20260903052845 | 0 | 0.0 | 0.0 | 0.00 | 0.00 | 0.00 | 1019.0 | ||
| 20260903052350 | 0 | 0.0 | 0.0 | 0.00 | 0.00 | 0.00 | 1019.1 | ||
| 20260903051840 | 0 | 0.0 | 0.0 | 0.00 | 0.00 | 0.00 | 1019.3 | ||
| 20260903051351 | 0 | 0.0 | 0.0 | 0.00 | 0.00 | 0.00 | 1019.4 | ||
| 20260903050840 | 0 | 0.0 | 0.0 | 0.00 | 0.00 | 0.00 | 1019.7 | ||
| 20260903050353 | 0 | 0.0 | 0.0 | 0.00 | 0.00 | 0.00 | 1020.1 | ||
| 20260903045840 | 0 | 0.0 | 0.0 | 0.00 | 0.03 | 0.00 | 1019.9 | ||
| 20260903045352 | 0 | 0.0 | 0.0 | 0.00 | 0.03 | 0.00 | 1019.4 | ||
| 20260903044845 | 0 | 0.0 | 0.0 | 0.00 | 0.03 | 0.00 | 1018.8 | ||
| 20260903044338 | 0 | 0.0 | 0.0 | 0.00 | 0.03 | 0.00 | 1018.1 | ||
| 20260903043851 | 0 | 0.0 | 0.0 | 0.00 | 0.03 | 0.00 | 1018.0 | ||
| 20260903043343 | 0 | 0.0 | 0.0 | 0.00 | 0.03 | 0.00 | 1017.7 | ||
| 20260903042850 | 0 | 0.0 | 0.0 | 0.00 | 0.03 | 0.00 | 1018.0 | ||
| 20260903042339 | 0 | 0.0 | 0.0 | 0.00 | 0.03 | 0.00 | 1017.8 | ||
| 20260903041850 | 0 | 0.0 | 0.0 | 0.00 | 0.03 | 0.00 | 1018.0 | ||
| 20260903041337 | 0 | 0.0 | 0.0 | 0.00 | 0.03 | 0.00 | 1018.0 | ||
| 20260903040850 | 0 | 0.0 | 0.0 | 0.00 | 0.03 | 0.00 | 1018.2 | ||
| 20260903040343 | 0 | 0.0 | 0.0 | 0.00 | 0.03 | 0.00 | 1018.2 | ||
| 20260903035851 | 0 | 0.0 | 0.0 | 0.00 | 0.10 | 0.03 | 1018.2 | ||
| 20260903035344 | 0 | 0.0 | 0.0 | 0.00 | 0.10 | 0.03 | 1018.3 | ||
| 20260903034854 | 0 | 0.0 | 0.0 | 0.00 | 0.10 | 0.03 | 1018.6 | ||
| 20260903034346 | 0 | 0.0 | 0.0 | 0.00 | 0.10 | 0.03 | 1018.8 | ||
| 20260903033856 | 0 | 0.0 | 0.0 | 0.00 | 0.10 | 0.03 | 1018.8 | ||
| 20260903033347 | 0 | 0.0 | 0.0 | 0.00 | 0.10 | 0.03 | 1018.8 | ||
| 20260903032849 | 0 | 0.0 | 0.0 | 0.00 | 0.10 | 0.03 | 1019.1 | ||
| 20260903032415 | 0 | 0.0 | 0.0 | 0.00 | 0.10 | 0.03 | 1018.8 | ||
| 20260903031843 | 0 | 0.0 | 0.0 | 0.00 | 0.10 | 0.03 | 1018.8 | ||
| 20260903031348 | 0 | 0.0 | 0.0 | 0.00 | 0.10 | 0.03 | 1019.1 | ||
| 20260903030838 | 0 | 0.0 | 0.0 | 0.00 | 0.10 | 0.03 | 1019.2 | ||
| 20260903030349 | 0 | 0.0 | 0.0 | 0.00 | 0.10 | 0.03 | 1019.0 | ||
| 20260903025851 | 0 | 0.0 | 0.0 | 0.00 | 0.15 | 0.03 | 1019.0 | ||
| 20260903025416 | 0 | 0.0 | 0.0 | 0.00 | 0.15 | 0.03 | 1019.0 | ||
| 20260903024859 | 0 | 0.0 | 0.0 | 0.00 | 0.15 | 0.03 | 1019.0 | ||
| 20260903024406 | 0 | 0.0 | 0.0 | 0.00 | 0.15 | 0.03 | 1019.1 | ||
| 20260903023838 | 0 | 0.0 | 0.0 | 0.00 | 0.15 | 0.03 | 1019.1 | ||
| 20260903023352 | 0 | 0.0 | 0.0 | 0.00 | 0.15 | 0.03 | 1019.1 | ||
| 20260903022857 | 0 | 0.0 | 0.0 | 0.00 | 0.15 | 0.03 | 1018.8 | ||
| 20260903022347 | 0 | 0.0 | 0.0 | 0.00 | 0.15 | 0.03 | 1018.9 | ||
| 20260903021855 | 0 | 0.0 | 0.0 | 0.00 | 0.15 | 0.03 | 1018.9 | ||
| 20260903021345 | 0 | 0.0 | 0.0 | 0.00 | 0.15 | 0.03 | 1018.7 | ||
| 20260903020835 | 0 | 0.0 | 0.0 | 0.00 | 0.15 | 0.03 | 1018.6 | ||
| 20260903020348 | 0 | 0.0 | 0.0 | 0.00 | 0.15 | 0.03 | 1018.5 | ||
| 20260903015855 | 0 | 0.0 | 0.0 | 0.00 | 0.19 | 0.03 | 1018.3 | ||
| 20260903015346 | 0 | 0.0 | 0.0 | 0.00 | 0.19 | 0.03 | 1018.4 | ||
| 20260903014837 | 0 | 0.0 | 0.0 | 0.00 | 0.19 | 0.03 | 1018.5 | ||
| 20260903014411 | 0 | 0.0 | 0.0 | 0.00 | 0.19 | 0.03 | 1018.5 | ||
| 20260903013843 | 0 | 0.0 | 0.0 | 0.00 | 0.19 | 0.03 | 1018.6 | ||
| 20260903013352 | 0 | 0.0 | 0.0 | 0.00 | 0.19 | 0.03 | 1018.9 | ||
| 20260903012857 | 0 | 0.0 | 0.0 | 0.00 | 0.19 | 0.03 | 1019.0 | ||
| 20260903012406 | 0 | 0.0 | 0.0 | 0.00 | 0.19 | 0.03 | 1019.1 | ||
| 20260903011837 | 0 | 0.0 | 0.0 | 0.00 | 0.19 | 0.03 | 1019.0 | ||
| 20260903011351 | 0 | 0.0 | 0.0 | 0.00 | 0.19 | 0.03 | 1018.9 | ||
| 20260903010904 | 0 | 0.0 | 0.0 | 0.00 | 0.19 | 0.03 | 1018.9 | ||
| 20260903010356 | 0 | 0.0 | 0.0 | 0.00 | 0.19 | 0.03 | 1018.9 | ||
| 20260903005843 | 0 | 0.0 | 0.0 | 0.00 | 0.19 | 0.03 | 1018.6 | ||
| 20260903005353 | 0 | 0.0 | 0.0 | 0.00 | 0.19 | 0.03 | 1018.6 | ||
| 20260903004844 | 0 | 0.0 | 0.0 | 0.00 | 0.19 | 0.03 | 1018.6 | ||
| 20260903004355 | 0 | 0.0 | 0.0 | 0.00 | 0.19 | 0.03 | 1018.6 | ||
| 20260903003844 | 0 | 0.0 | 0.0 | 0.00 | 0.19 | 0.03 | 1018.8 | ||
| 20260903003354 | 0 | 0.0 | 0.0 | 0.00 | 0.19 | 0.03 | 1018.7 | ||
| 20260903002843 | 0 | 0.0 | 0.0 | 0.00 | 0.19 | 0.03 | 1018.6 | ||
| 20260903002340 | 0 | 0.0 | 0.0 | 0.00 | 0.19 | 0.03 | 1018.5 | ||
| 20260903001849 | 0 | 0.0 | 0.0 | 0.00 | 0.19 | 0.03 | 1018.7 | ||
| 20260903001342 | 0 | 0.0 | 0.0 | 0.00 | 0.19 | 0.03 | 1018.6 | ||
| 20260903000852 | 0 | 0.0 | 0.0 | 0.00 | 0.19 | 0.03 | 1018.5 | ||
| 20260903000343 | 0 | 0.0 | 0.0 | 0.00 | 0.19 | 0.03 | 1018.6 | ||
| 20260902235849 | 0 | 0.0 | 0.0 | 0.00 | 0.19 | 0.03 | 1018.7 | ||
| 20260902235340 | 0 | 0.0 | 0.0 | 0.00 | 0.19 | 0.03 | 1018.7 | ||
| 20260902234849 | 0 | 0.0 | 0.0 | 0.00 | 0.19 | 0.03 | 1018.6 | ||
| 20260902234337 | 0 | 0.0 | 0.0 | 0.00 | 0.19 | 0.03 | 1018.5 | ||
| 20260902233849 | 0 | 0.0 | 0.0 | 0.00 | 0.19 | 0.03 | 1018.7 | ||
| 20260902233341 | 0 | 0.0 | 0.0 | 0.00 | 0.19 | 0.03 | 1018.6 | ||
| 20260902232910 | 0 | 0.0 | 0.0 | 0.00 | 0.19 | 0.03 | 1018.5 | ||
| 20260902232343 | 0 | 0.0 | 0.0 | 0.00 | 0.19 | 0.03 | 1018.4 | ||
| 20260902231854 | 0 | 0.0 | 0.0 | 0.00 | 0.19 | 0.03 | 1018.5 | ||
| 20260902231407 | 0 | 0.0 | 0.0 | 0.00 | 0.19 | 0.03 | 1018.5 | ||
| 20260902230345 | 0 | 0.0 | 0.0 | 0.00 | 0.19 | 0.03 | 1018.6 | ||
| 20260902225853 | 0 | 0.0 | 0.0 | 0.00 | 0.19 | 0.03 | 1018.5 | ||
| 20260902225343 | 0 | 0.0 | 0.0 | 0.00 | 0.19 | 0.03 | 1018.6 | ||
| 20260902224851 | 74 | 0.0 | 0.0 | 0.00 | 0.19 | 0.03 | 93 | 1018.6 | |
| 20260902223848 | 74 | 0.0 | 0.0 | 0.00 | 0.19 | 0.03 | 93 | 1018.6 | |
| 20260902223416 | 74 | 0.0 | 0.0 | 0.00 | 0.19 | 0.03 | 93 | 1018.6 | |
| 20260902222857 | 74 | 0.0 | 0.0 | 0.00 | 0.19 | 0.03 | 93 | 1018.5 | |
| 20260902222407 | 74 | 0.0 | 0.0 | 0.00 | 0.19 | 0.03 | 93 | 1018.5 | |
| 20260902221851 | 74 | 0.0 | 0.0 | 0.00 | 0.19 | 0.03 | 93 | 1018.5 | |
| 20260902221358 | 74 | 0.0 | 0.0 | 0.00 | 0.19 | 0.03 | 93 | 1018.7 | |
| 20260902220843 | 74 | 0.0 | 0.0 | 0.00 | 0.19 | 0.03 | 93 | 1018.8 | |
| 20260902220351 | 74 | 0.0 | 0.0 | 0.00 | 0.19 | 0.03 | 93 | 1018.8 | |
| 20260902215918 | 74 | 0.0 | 0.0 | 0.00 | 0.19 | 0.03 | 93 | 1018.9 | |
| 20260902215346 | 75 | 0.0 | 0.0 | 0.00 | 0.19 | 0.03 | 93 | 1018.9 | |
| 20260902214853 | 75 | 0.0 | 0.0 | 0.00 | 0.19 | 0.03 | 92 | 1018.9 | |
| 20260902214342 | 75 | 0.0 | 0.0 | 0.00 | 0.19 | 0.03 | 93 | 1018.9 | |
| 20260902213847 | 75 | 0.0 | 0.0 | 0.00 | 0.19 | 0.03 | 93 | 1019.0 | |
| 20260902213354 | 75 | 0.0 | 0.0 | 0.00 | 0.19 | 0.03 | 92 | 1019.0 |